Location: Newark
(43.9494°N, 6.8108°E)
Time: 02:44:42
(UTC+00:00)

Transit 2A Rocket - Pass Details

Date: 26 October 2019
Orbit: 594 x 909 km, 66.7° (Epoch: 16 November)

Event Time Altitude Azimuth Distance (km) Brightness Sun altitude
Exits shadow 04:26:05 23° 314° (NW) 1,403 6.0 -17.6°
Drops below altitude 10° 04:29:46 10° 8° (N) 2,037 7.3 -17.0°
Sets 04:32:23 0° 23° (NNE) 2,910 8.3 -16.5°
